CW9455 Weather Reports


time (UTC)temp
F
wind
direction
speed
knots
gust
knots
rain 1hr
in
rain 24hr
in
rain mn
in
humidity
%
barometer
mb
20260504235642 55 288 12.2 22.6 0.00 0.00 0.00 61 1009.2
20260504234912 55 280 12.2 23.5 0.00 0.00 0.00 62 1009.1
20260504234409 55 234 12.2 23.5 0.00 0.00 0.00 61 1009.2
20260504233909 55 265 11.3 20.9 0.00 0.00 0.00 61 1009.1
20260504233409 55 223 11.3 20.9 0.00 0.00 0.00 61 1009.2
20260504232910 55 284 11.3 23.5 0.00 0.00 0.00 61 1009.1
20260504232408 56 255 12.2 23.5 0.00 0.00 0.00 61 1009.0
20260504231909 56 237 13.0 22.6 0.00 0.00 0.00 60 1009.0
20260504231408 56 218 13.0 22.6 0.00 0.00 0.00 60 1009.1
20260504231127 56 217 13.0 22.6 0.00 0.00 0.00 59 1009.0
20260504230409 56 225 13.0 22.6 0.00 0.00 0.00 59 1009.1
20260504225909 57 236 13.0 22.6 0.00 0.00 0.00 59 1009.1
20260504225410 57 259 13.0 23.5 0.00 0.00 0.00 58 1009.0
20260504224904 57 211 13.0 23.5 0.00 0.00 0.00 58 1009.1
20260504224405 57 246 13.9 26.1 0.00 0.00 0.00 57 1009.1
20260504224126 57 227 13.9 26.1 0.00 0.00 0.00 57 1009.1
20260504223405 58 273 13.0 25.2 0.00 0.00 0.00 57 1009.1
20260504222905 58 248 13.0 24.3 0.00 0.00 0.00 57 1009.1
20260504222405 58 244 13.0 24.3 0.00 0.00 0.00 56 1009.1
20260504221906 58 231 13.0 22.6 0.00 0.00 0.00 57 1009.1
20260504221404 58 265 13.9 26.1 0.00 0.00 0.00 56 1009.2
20260504220905 58 257 13.9 26.1 0.00 0.00 0.00 55 1009.2
20260504220400 58 241 13.0 23.5 0.00 0.00 0.00 55 1009.2
20260504215900 59 253 13.0 23.5 0.00 0.00 0.00 55 1009.3
20260504215400 59 294 13.0 23.5 0.00 0.00 0.00 55 1009.3
20260504214859 59 248 13.0 23.5 0.00 0.00 0.00 54 1009.2
20260504214400 59 226 12.2 24.3 0.00 0.00 0.00 54 1009.3
20260504213904 60 235 13.0 24.3 0.00 0.00 0.00 53 1009.3
20260504213358 60 279 12.2 20.9 0.00 0.00 0.00 53 1009.3
20260504212900 60 241 11.3 20.9 0.00 0.00 0.00 53 1009.3
20260504212359 60 213 11.3 21.7 0.00 0.00 0.00 52 1009.2
20260504212115 60 253 12.2 21.7 0.00 0.00 0.00 52 1009.2
20260504211621 60 229 12.2 20.9 0.00 0.00 0.00 51 1009.2
20260504210853 60 236 13.0 22.6 0.00 0.00 0.00 50 1009.2
20260504210347 61 239 12.2 22.6 0.00 0.00 0.00 50 1009.1
20260504205841 61 257 11.3 20.9 0.00 0.00 0.00 49 1009.2
20260504205335 61 227 11.3 20.9 0.00 0.00 0.00 48 1009.1
20260504204829 61 240 9.6 20.9 0.00 0.00 0.00 49 1009.3
20260504204323 61 264 11.3 20.9 0.00 0.00 0.00 49 1009.3
20260504203817 61 264 12.2 21.7 0.00 0.00 0.00 49 1009.2
20260504203310 62 247 11.3 21.7 0.00 0.00 0.00 48 1009.2
20260504202805 62 253 11.3 20.9 0.00 0.00 0.00 48 1009.2
20260504202258 62 261 11.3 19.1 0.00 0.00 0.00 47 1009.1
20260504201753 62 230 12.2 19.1 0.00 0.00 0.00 46 1009.2
20260504201247 62 253 11.3 20.9 0.00 0.00 0.00 45 1009.1
20260504200740 63 277 10.4 20.9 0.00 0.00 0.00 45 1009.0
20260504200454 63 261 10.4 20.9 0.00 0.00 0.00 47 1009.3
20260504195727 63 268 12.2 20.9 0.00 0.00 0.00 46 1009.3
20260504195221 62 244 12.2 20.9 0.00 0.00 0.00 46 1009.3
20260504194715 63 253 11.3 20.9 0.00 0.00 0.00 47 1009.4
20260504194209 62 259 11.3 20.0 0.00 0.00 0.00 48 1009.4
20260504193703 62 225 11.3 20.0 0.00 0.00 0.00 48 1009.5
20260504193157 63 242 10.4 18.2 0.00 0.00 0.00 48 1009.4
20260504192917 63 213 11.3 20.9 0.00 0.00 0.00 48 1009.5
20260504192145 64 212 11.3 20.9 0.00 0.00 0.00 44 1009.5
20260504191638 64 225 11.3 20.0 0.00 0.00 0.00 45 1009.5
20260504191132 64 263 10.4 20.0 0.00 0.00 0.00 43 1009.4
20260504190626 64 246 10.4 20.9 0.00 0.00 0.00 44 1009.5
20260504190121 64 250 10.4 20.9 0.00 0.00 0.00 44 1009.5
20260504185615 64 234 10.4 22.6 0.00 0.00 0.00 44 1009.6
20260504185110 64 246 10.4 22.6 0.00 0.00 0.00 43 1009.6
20260504184603 64 247 10.4 22.6 0.00 0.00 0.00 44 1009.7
20260504184323 64 242 11.3 22.6 0.00 0.00 0.00 43 1009.8
20260504183551 63 267 11.3 20.9 0.00 0.00 0.00 43 1009.9
20260504183313 64 260 9.6 16.5 0.00 0.00 0.00 43 1009.8
20260504182539 64 237 9.6 20.9 0.00 0.00 0.00 46 1009.9
20260504182033 64 209 10.4 20.9 0.00 0.00 0.00 43 1009.9
20260504181526 64 245 11.3 22.6 0.00 0.00 0.00 42 1010.0
20260504181022 64 244 10.4 22.6 0.00 0.00 0.00 41 1010.0
20260504180515 64 250 10.4 20.0 0.00 0.00 0.00 45 1010.1
20260504180009 63 263 10.4 20.9 0.00 0.00 0.00 44 1010.2
20260504175503 63 227 10.4 20.9 0.00 0.00 0.00 43 1010.2
20260504174957 63 254 10.4 18.2 0.00 0.00 0.00 45 1010.3
20260504174715 64 274 11.3 19.1 0.00 0.00 0.00 44 1010.3
20260504174203 63 242 12.2 22.6 0.00 0.00 0.00 44 1010.1
20260504173439 64 234 11.3 22.6 0.00 0.00 0.00 40 1010.3
20260504172932 64 262 11.3 20.0 0.00 0.00 0.00 40 1010.3
20260504172426 64 248 11.3 20.0 0.00 0.00 0.00 40 1010.2
20260504172148 64 246 10.4 18.2 0.00 0.00 0.00 41 1010.2
20260504171908 64 264 10.4 18.2 0.00 0.00 0.00 38 1010.4
20260504170909 65 252 8.7 16.5 0.00 0.00 0.00 39 1010.4
20260504170403 65 270 9.6 20.0 0.00 0.00 0.00 38 1010.5
20260504160357 65 312 7.8 17.4 0.00 0.00 0.00 30 1010.8
20260504150820 64 248 7.8 17.4 0.00 0.00 0.00 31 1011.2
20260504150314 64 296 7.8 14.8 0.00 0.00 0.00 30 1011.5
20260504141303 62 275 8.7 15.6 0.00 0.00 0.00 39 1011.7
20260504141022 63 269 7.8 17.4 0.00 0.00 0.00 37 1011.7
20260504140301 63 313 7.8 17.4 0.00 0.00 0.00 36 1011.7
20260504130800 61 326 7.0 15.6 0.00 0.00 0.00 34 1012.0
20260504130300 61 336 7.8 15.6 0.00 0.00 0.00 36 1012.2
20260504120251 56 284 6.1 13.9 0.00 0.00 0.00 43 1012.3
20260504110245 53 271 5.2 10.4 0.00 0.00 0.00 47 1012.0
20260504100231 51 302 4.3 8.7 0.00 0.00 0.00 49 1011.7
20260504081558 53 300 5.2 12.2 0.00 0.00 0.00 45 1011.2
20260504081052 53 267 5.2 13.9 0.00 0.00 0.00 46 1011.2
20260504080545 53 308 4.3 13.9 0.00 0.00 0.00 46 1011.3
20260504050604 52 288 3.5 7.8 0.00 0.00 0.00 46 1010.8
20260504045843 52 284 3.5 8.7 0.00 0.00 0.00 44 1010.7
20260504045341 52 286 4.3 8.7 0.00 0.00 0.00 43 1010.8
20260504045100 52 275 3.5 8.7 0.00 0.00 0.00 45 1010.8
20260504044341 52 269 3.5 7.0 0.00 0.00 0.00 46 1010.8
20260504044105 52 265 2.6 5.2 0.00 0.00 0.00 47 1010.9
20260504043342 52 248 1.7 5.2 0.00 0.00 0.00 43 1010.8
20260504042840 52 266 1.7 3.5 0.00 0.00 0.00 42 1010.8
20260504042341 52 266 1.7 4.3 0.00 0.00 0.00 41 1010.7
20260504041841 52 302 1.7 5.2 0.00 0.00 0.00 41 1010.7
20260504041341 52 279 1.7 5.2 0.00 0.00 0.00 41 1010.7
20260504040843 52 281 2.6 5.2 0.00 0.00 0.00 40 1010.7
20260504040342 52 271 1.7 5.2 0.00 0.00 0.00 41 1010.7
20260504035842 52 287 1.7 5.2 0.00 0.00 0.00 41 1010.6
20260504035544 52 286 3.5 7.8 0.00 0.00 0.00 42 1010.6
20260504035430 52 310 2.6 5.2 0.00 0.00 0.00 41 1010.7
20260504034339 52 290 3.5 7.8 0.00 0.00 0.00 42 1010.6
20260504033834 52 263 2.6 6.1 0.00 0.00 0.00 43 1010.5
20260504033328 52 250 2.6 6.1 0.00 0.00 0.00 43 1010.5
20260504032822 52 267 3.5 6.1 0.00 0.00 0.00 44 1010.4
20260504032316 52 269 2.6 6.1 0.00 0.00 0.00 45 1010.4
20260504031813 51 272 2.6 6.1 0.00 0.00 0.00 45 1010.5
20260504031303 51 250 2.6 5.2 0.00 0.00 0.00 46 1010.5
20260504030758 51 292 2.6 5.2 0.00 0.00 0.00 47 1010.5
20260504030251 51 260 2.6 5.2 0.00 0.00 0.00 49 1010.5
20260504025746 51 278 1.7 5.2 0.00 0.00 0.00 51 1010.5
20260504025246 51 279 1.7 3.5 0.00 0.00 0.00 52 1010.5
20260504024746 51 277 1.7 3.5 0.00 0.00 0.00 52 1010.5
20260504024246 51 276 1.7 4.3 0.00 0.00 0.00 52 1010.5
20260504023743 51 252 2.6 6.1 0.00 0.00 0.00 53 1010.5
20260504023241 51 267 2.6 6.1 0.00 0.00 0.00 53 1010.6
20260504022943 51 248 1.7 3.5 0.00 0.00 0.00 54 1010.5
20260504022830 51 269 1.7 5.2 0.00 0.00 0.00 54 1010.6
20260504021738 51 276 1.7 4.3 0.00 0.00 0.00 54 1010.4
20260504021240 51 263 2.6 4.3 0.00 0.00 0.00 52 1010.4
20260504020957 51 234 2.6 3.5 0.00 0.00 0.00 51 1010.5
20260504020240 51 226 1.7 3.5 0.00 0.00 0.00 50 1010.5
20260504015740 51 232 1.7 3.5 0.00 0.00 0.00 49 1010.5
20260504015240 51 221 0.9 2.6 0.00 0.00 0.00 49 1010.5
20260504014740 51 232 1.7 4.3 0.00 0.00 0.00 51 1010.5
20260504014240 51 238 2.6 6.1 0.00 0.00 0.00 51 1010.4
20260504013739 51 240 2.6 6.1 0.00 0.00 0.00 51 1010.3
20260504013238 51 241 2.6 6.1 0.00 0.00 0.00 51 1010.3
20260504012736 51 256 2.6 6.1 0.00 0.00 0.00 50 1010.2
20260504012237 52 237 2.6 5.2 0.00 0.00 0.00 49 1010.2
20260504011737 52 255 2.6 5.2 0.00 0.00 0.00 48 1010.1
20260504011237 52 279 3.5 7.0 0.00 0.00 0.00 47 1010.0
20260504010738 52 264 3.5 7.0 0.00 0.00 0.00 48 1009.7
20260504010236 52 265 2.6 7.0 0.00 0.00 0.00 51 1009.7
20260504005741 52 263 3.5 7.0 0.00 0.00 0.00 51 1009.7
20260504005238 52 260 2.6 5.2 0.00 0.00 0.00 51 1009.7
20260504004738 52 250 2.6 5.2 0.00 0.00 0.00 50 1009.6
20260504004234 52 264 1.7 3.5 0.00 0.00 0.00 49 1009.5
20260504003733 52 252 1.7 3.5 0.00 0.00 0.00 46 1009.5
20260504003234 52 244 0.9 3.5 0.00 0.00 0.00 46 1009.4
20260504002733 52 263 0.0 2.6 0.00 0.00 0.00 41 1009.3
20260504002232 52 298 0.9 2.6 0.00 0.00 0.00 42 1009.2
20260504001733 52 336 1.7 3.5 0.00 0.00 0.00 42 1009.2
20260504001233 52 338 1.7 3.5 0.00 0.00 0.00 43 1009.1
20260504000732 52 338 2.6 4.3 0.00 0.00 0.00 44 1009.1
20260504000234 52 336 2.6 4.3 0.00 0.00 0.00 43 1009.0
20260503235952 52 351 2.6 4.3 0.00 0.00 0.00 44 1009.0